This demonstration page uses our WeatherBlox Daily Observations layout. Learn more.

Left ArrowRight Arrow

39.95238, -75.16362

Hourly Observations for August 29, 2016

Temp ( °F °C ) Dew Point ( °F °C ) Humidity (%) Winds ( mph kmh ) Pressure ( in mb ) Visibility ( mi km ) Precip ( " mm )
12:54 am 00:54 Partly Cloudy 75 23.9 68 20 79 79 S 9 15 30.17 1022 10 16 0.00 0.00
1:54 am 01:54 Mostly Cloudy 75 23.9 68 20 79 79 SSW 6 9 30.17 1022 10 16 0.00 0.00
2:54 am 02:54 Mostly Cloudy 75 23.9 69 20.6 82 82 SW 7 11 30.15 1021 10 16 0.00 0.00
3:54 am 03:54 Partly Cloudy 73 22.8 69 20.6 87 87 S 6 9 30.13 1020 10 16 0.00 0.00
4:54 am 04:54 Partly Cloudy 73 22.8 69 20.6 87 87 WSW 5 7 30.12 1020 10 16 0.00 0.00
5:54 am 05:54 Partly Cloudy 73 22.8 69 20.6 87 87 VRB 5 7 30.14 1021 10 16 0.00 0.00
6:54 am 06:54 Partly Cloudy 74 23.3 66 18.9 76 76 W 8 13 30.15 1021 10 16 0.00 0.00
7:54 am 07:54 Partly Cloudy 75 23.9 67 19.4 76 76 WSW 6 9 30.15 1021 10 16 0.00 0.00
8:54 am 08:54 Mostly Cloudy 78 25.6 65 18.3 64 64 W 9 15 30.15 1021 10 16 0.00 0.00
9:54 am 09:54 Mostly Cloudy 81 27.2 66 18.9 61 61 VRB 5 7 30.14 1021 10 16 0.00 0.00
10:54 am 10:54 Mostly Cloudy 85 29.4 67 19.4 55 55 NNW 6 9 30.14 1021 10 16 0.00 0.00
11:54 am 11:54 Mostly Cloudy 89 31.7 68 20 50 50 VRB 5 7 30.13 1020 10 16 0.00 0.00
12:54 pm 12:54 Mostly Cloudy 88 31.1 68 20 52 52 NW 8 13 30.11 1020 10 16 0.00 0.00
1:54 pm 13:54 Mostly Cloudy 91 32.8 67 19.4 45 45 WNW 10 17 30.11 1020 10 16 0.00 0.00
2:54 pm 14:54 Mostly Cloudy 92 33.3 66 18.9 43 43 NW 8 13 30.08 1019 10 16 0.00 0.00
3:54 pm 15:54 Mostly Cloudy 93 33.9 63 17.2 37 37 N 7 11 30.06 1018 10 16 0.00 0.00
4:54 pm 16:54 Partly Cloudy 93 33.9 62 16.7 36 36 N 10 17 30.04 1017 10 16 0.00 0.00
5:54 pm 17:54 Partly Cloudy 92 33.3 61 16.1 36 36 NNW 10 17 30.05 1018 10 16 0.00 0.00
6:54 pm 18:54 Partly Cloudy 90 32.2 56 13.3 32 32 N 13 20 30.06 1018 10 16 0.00 0.00
7:54 pm 19:54 Partly Cloudy 87 30.6 57 13.9 36 36 N 14 22 30.08 1019 10 16 0.00 0.00
8:54 pm 20:54 Mostly Clear 84 28.9 60 15.6 44 44 N 14 22 30.10 1019 10 16 0.00 0.00
9:54 pm 21:54 Clear 83 28.3 60 15.6 46 46 NNE 9 15 30.12 1020 10 16 0.00 0.00
10:54 pm 22:54 Clear 81 27.2 58 14.4 45 45 NE 12 19 30.13 1020 10 16 0.00 0.00
11:54 pm 23:54 Clear 79 26.1 58 14.4 49 49 NNE 8 13 30.13 1020 10 16 0.00 0.00

Powered by AerisWeather